Location: *
(50.9167°S, 179.4000°W)
Time: 20:34:45
(UTC+00:00)

H-2A R/B - Pass Details

Date: 03 March 2024
Orbit: 730 x 834 km, 98.2° (Epoch: 16 April)

Event Time Altitude Azimuth Distance (km) Brightness Sun altitude
Rises 14:12:47 0° 54° (NE) 3,171 5.2 -26.8°
Reaches altitude 10° 14:15:22 10° 67° (ENE) 2,262 4.6 -26.5°
Maximum altitude 14:19:22 25° 121° (ESE) 1,494 4.1 -26.1°
Drops below altitude 10° 14:23:28 10° 174° (S) 2,318 5.2 -25.8°
Sets 14:26:08 0° 186° (S) 3,267 5.9 -25.5°
